{"data":{"norad_id":54671,"epoch":"2026-09-20T03:00:13.861152Z","epoch_age_seconds":54282,"freshness":"FRESH","line1":"1 54671U 22166AF  26263.12516043 -.00000064  00000+0 -18710-3 0  9992","line2":"2 54671  87.9290 225.0784 0002000  78.8140 281.3219 13.21825436184080","mean_motion":13.21825436,"eccentricity":0.0002,"inclination_deg":87.929,"raan_deg":225.0784,"arg_perigee_deg":78.814,"mean_anomaly_deg":281.3219,"bstar":-0.0001871,"rev_number":18408,"period_min":108.94025495209,"perigee_km":1176.2443391758,"apogee_km":1179.2666961829,"semimajor_km":7555.8925176793,"source":"CELESTRAK","updated_at":"2026-09-20T09:00:44.747348Z"}}